Flag for Netherlands Weather past 2 weeks in Montfoort, Netherlands

Now
55 °F

Overcast.


Feels Like: 54 °F
Forecast: 45 / 51 °F
Wind: 6 mph from Southwest

Location: De Bilt

Current Time: Oct 21, 2014 at 6:07:56 AM

Latest Report: Oct 21, 2014 at 5:00 AM


Visibility: 11 mi

Pressure: 29.78 "Hg

Humidity: 90%

Dew point: 52 °F

Location of MontfoortLocation

Historic Weather in Montfoort — Graph

°F

Montfoort temperature yesterday

Maximum temperature yesterday: 63 °F (at 3:00 PM)
Minimum temperature yesterday: 58 °F (at 3:00 AM)
Average temperature yesterday: 59 °F

Past Weeks' High & Low Weather Summary

 TemperatureHumidityPressure
High73 °F (Oct 18, 5:00 PM)100% (Oct 7, 5:00 AM)30.03 "Hg (Oct 7, 5:00 AM)
Low44 °F (Oct 12, 8:00 AM)63% (Oct 7, 4:00 PM)29.41 "Hg (Oct 7, 11:00 AM)
Average57 °F88%29.78 "Hg
* Reported Oct 6 4:00 AM — Oct 21 4:00 AM, Montfoort, Weather by CustomWeather, © 2014

Note: Actual official high and low records may vary slightly from our data, if they occured in-between our weather recording intervals... More about our weather records

Advertising

Montfoort weather history for previous 24 hours

 ConditionsComfort  
Time TempWeatherWind HumidityBarometerVisibility
4:00 AM
Oct 21
55 °FOvercast.6 mph90%29.81 "Hg11 mi
3:00 AM56 °FOvercast.5 mph88%29.84 "Hg14 mi
2:00 AM57 °FOvercast.6 mph85%29.85 "Hg16 mi
1:00 AM57 °FOvercast.6 mph86%29.86 "Hg16 mi
12:00 AM57 °FOvercast.5 mph86%29.88 "Hg16 mi
11:00 PM
Oct 20
58 °FOvercast.5 mph86%29.90 "Hg16 mi
10:00 PM58 °FOvercast.5 mph86%29.91 "Hg19 mi
9:00 PM58 °FOvercast.5 mph84%29.92 "Hg25 mi
8:00 PM58 °FOvercast.5 mph81%29.93 "Hg25 mi
7:00 PM59 °FOvercast.3 mph78%29.94 "Hg28 mi
6:00 PM59 °FOvercast.3 mph75%29.95 "Hg25 mi
5:00 PM62 °FOvercast.6 mph69%29.96 "Hg22 mi
4:00 PM61 °FPartly sunny.5 mph72%29.97 "Hg22 mi
3:00 PM63 °FScattered clouds.6 mph65%29.98 "Hg22 mi
2:00 PM62 °FPartly sunny.6 mph69%29.99 "Hg19 mi
1:00 PM62 °FOvercast.6 mph72%30.00 "Hg22 mi
12:00 PM61 °FPartly sunny.6 mph78%30.00 "Hg19 mi
11:00 AM60 °FPartly sunny.6 mph79%29.99 "Hg14 mi
10:00 AM59 °FOvercast.5 mph86%29.99 "Hg19 mi
9:00 AM58 °FOvercast.3 mph85%29.98 "Hg15 mi
8:00 AM58 °FOvercast.3 mph83%29.97 "Hg17 mi
7:00 AM58 °FRain showers. Overcast.5 mph83%29.96 "Hg9 mi
Weather by CustomWeather, © 2014

See weather overviewHow to use our weather pages